ONEWEB-0047 (45152 NORAD) Tracking and Keplerian Element Data

This shows tracking and keplerian element data for the satellite.

Feedback or suggestion? Click here.




ElementValue
Catalog45152
NameONEWEB-0047
Epoch Orbit843
Epoch Day88.07945047
Epoch Year2020
RAAN147.3669
Inclination87.5074
Eccentricity0.0023811
Argument of Perigee115.7301
Mean Anonmoly244.6392
Mean Motion14.95651624
Decay Rate-0.0025446
L11 45152U 20008X 20088.07945047 -.00254460 00000-0 -23617-1 0 9994
L22 45152 87.5074 147.3669 0023811 115.7301 244.6392 14.95651624 8437

Live tracking and technical data element details for ONEWEB-0047 (NORAD 45152). ONEWEB-0047 can be tracked NOW for your location showing map with azimuth and elevation plus other details from your city location.

Track the satellite on the map from your city or location and see movement details for azimuth, elevation, latitude, longitude, range, height, and movement on the map or in text.







IsCatalogInMostPopularTable: catalog: 45152, numindb: 13
Update: records affected: 1



GetName: 45152 ONEWEB-0047

Hit Count: updated at: Tue, 31 Mar 2020 14:18:09 GMT